Volver al catálogo

COSMOS 886 DEB

ActivoUNKNOWN
NORAD 14503·DEBRIS·🇷🇺 Russia

Lanzado Dec 27, 1976 desde Baikonur Cosmodrome

Loading…

Próximos Pases (próximas 24 horas)

TLE

ActualizadoSource: Space-Track

Época: Sep 14, 2026, 06:04 UTC

1 14503U 76126BQ  26257.25337375 -.00000088  00000-0 -45898-4 0  9998
2 14503  65.8547 209.8815 1004347 208.5126 145.7237 12.32300815584388

Sigue COSMOS 886 DEB en tiempo real con AllMySat

Download on the App Store